Погода в Тамбове

Погода в Тамбове : погода сейчас, прогноз погоды и архив. Всё, что Вы хотите узнать о погоде в Тамбове!

Поиск расширенной информации на нашем сайте:

Другие новости

Новости СМИ2

Главная страница сайта

Новости сайта

03.07.2017

Напоминаем, что на нашем специализированном сайте Метеоцентр.Азия вы можете получить высокодетализированные автоматические прогнозы погоды по пунктам России, СНГ и мира в авиационном формате (включающие направление и скорость ветра, видимость, явления погоды, количество и форму облачности, нижнюю и верхнюю границу облачности).


Погода в Тамбове - сегодня

Время (UTC), дата Ветер
(°,м/с) 
Видим.   Явления Облачность Т
(°С)
Тd
(°С)
f(%) Тe
(°С)
Pmin
(гПа)
dP
(гПа)
Po
(мм)
O2
(г/м3)
Тmin Tmax R s Состояние
почвы
09 17.10.17 180 (Ю) 10 км    10/10 420 м 
[Sc]
+6.8 +2.7 75 +7  1011.9  -1.3  747  293           
12 17.10.17 240 (ЮЗ) 4000 м  слаб. дождь  10/10 120 м 
[Frnb|Ns]
+6.9 +6 94 +8  1012.3  0.4  747  293           
15 17.10.17 тихо ()   10 км  местами туман поземный{дождь}  10/10 1000 м 
[Sc]
+7.6 +6.7 94 +8  1013.6  1.3  748  292    +8.7  0.0     
18 17.10.17 тихо ()   10 км    8/0 верхняя 
[Ci sp]
+5.4 +4 91 +5  1015.4  1.6  749  295           
21 17.10.17 тихо ()   10 км    8/0 верхняя 
[Ci sp]
+3.2 +1.9 91 +3  1016.7  1.2  750  298           
00 18.10.17 тихо ()   10 км    4/0 верхняя 
[Ci sp]
+1.1 +0.3 94 +1  1017.3  0.4  750  301           
03 18.10.17 тихо ()   10 км    8/0 верхняя 
[Ci sp]
+1.6 +0.8 94 +2  1016.3  -1  750  300  +0.3         
06 18.10.17 190 (Ю) 10 км  в посл. час ливневой дождь  9/5 1500 м кучево-дожд., средняя 
[Cb calv|Ac trans]
+5.7 +3.6 86 +5  1015.4  -0.6  749  295           
09 18.10.17 220 (ЮЗ) 5-10{11}  10 км  {ливн. осадки}  5/0 средняя, верхняя 
[Ac trans|Ci sp]
+13.1 +6.4 64 +12  1012  -2.9  747  286           
12 18.10.17 230 (ЮЗ) 3{11}  10 км  {ливн. осадки}  9/6 800 м средняя 
[Sc|Ac trans]
+15.3 +8.9 66 +16  1010  -1.9  746  283           
15 18.10.17 240 (ЮЗ) 1{12}  10 км    9/0 средняя, верхняя 
[Ac trans|Ci sp]
+13.2 +9.7 79 +15  1009.2  -0.6  745  285    +16.1  0.0     
18 18.10.17 210 (ЮЗ) 10 км    9/0 средняя, верхняя 
[Ac trans|Ci sp]
+11.9 +9.9 88 +14  1009.9  0.4  746  286           
21 18.10.17 230 (ЮЗ) 10 км    9/0 средняя, верхняя 
[Ac trans|Ci sp]
+12.6 +10.3 86 +14  1009.5  -0.4  745  285           
00 19.10.17 250 (З) 10 км    9/0 средняя, верхняя 
[Ac trans|Ci sp]
+11.5 +9.7 89 +12  1009.6  745  286           
03 19.10.17 230 (ЮЗ) 10 км    6/3 1000 м средняя 
[Sc|Ac trans]
+10.1 +9 93 +10  1010.2  0.6  746  288  +10         
06 19.10.17 240 (ЮЗ) 10 км    9/9 1000 м 
[Sc]
+11.1 +9.7 91 +12  1011.9  1.7  747  287           
09 19.10.17 310 (СЗ) 10 км    9/6 800 м верхняя 
[Cu hum|Ci sp]
+12.8 +6.2 64 +12  1013.1  1.3  748  287           
12 19.10.17 300 (СЗ) 6{10}  10 км    9/0 средняя, верхняя 
[Ac trans|Ci sp]
+12 +0.4 45 +11  1014.7  1.4  749  289           
15 19.10.17 290 (З) 10 км    5/0 верхняя 
[Ci sp]
+5.3 +1 74 +6  1016.3  1.3  750  296    +14       
18 19.10.17 тихо ()   10 км    5/0 верхняя 
[Ci sp]
+3 +1.2 88 +3  1017.6  1.2  751  299           
21 19.10.17 тихо ()   10 км    3/0 верхняя 
[Ci sp]
-0.3 -1.4 92 -0  1018.4  0.5  751  303           
00 20.10.17 тихо ()   10 км    9/9 1000 м 
[Sc]
-1 -1.7 95 -1  1019.2  0.8  752  304           
03 20.10.17 тихо ()   10 км    9/9 1000 м 
[Sc]
-1.2 -1.9 95 -1  1019.9  0.6  752  305  -1.8         
06 20.10.17 тихо ()   10 км    9/9 1000 м 
[Sc]
+1.7 +0.9 94 +2  1020.8  1.1  753  301  -2.1         
09 20.10.17 280 (З) 10 км    6/6 1000 м 
[Cu hum]
+8.7 +0.2 55 +9  1020.7  0.3  753  294           
Время (UTC), дата Ветер
(°,м/с) 
Видим.   Явления Облачность Т
(°С)
Тd
(°С)
f(%) Тe
(°С)
Pmin
(гПа)
dP
(гПа)
Po
(мм)
O2
(г/м3)
Тmin Tmax R s Состояние
почвы

Для получения пояснительной информации подведите курсор к названию столбца.

ПОГОДА в Тамбове - архив

Всё, что Вы хотите узнать о погоде в Тамбове - удобно и подробно!

Выберите нужную дату (начиная с 1 января 2015* года) и нажмите кнопку "Найти".
Будут отображены архивные сводки погоды по пункту Тамбов, начиная с указанной даты.


Отображать данные в формате CSV (для использования в таблицах Excel)


Внимание! Наш архив погоды предназначен исключительно для личного некоммерческого использования в познавательных целях. Если Вам необходимы официальные справки о состоянии погоды (для производственных, юридических, коммерческих и т.п. целей), обращайтесь в органы Росгидромета.

*Примечание: данная дата относится к архиву по метеостанциям СССР (Россия, СНГ, Балтия).
Архив по метеостанциям Зарубежной Европы и Азии (кроме Китая) хранится 10 дней, по другим регионам земного шара (Китай, Африка, Америка, Австралия, Океания) - 1 день.

Тамбов - район местоположения метеостанции


Название, широта, долгота, высота метеостанции:
Тамбов 52.8°ш. 41.3°д. 128 м над ур. моря [Российская Федерация]

Дополнительная информация

В oтличие oт бoльшинства пoгoдных сайтoв мы публикуем пoдрoбную метеoинфoрмацию в детальнoм прoфессиoнальнoм фoрмате.

Характеристики температуры и влажнoсти вoздуха измеряются на высoте 2 м в тени вдали oт зданий и деревьев.
Скoрoсть ветра измеряется на высoте 10 м (на урoвне рoста челoвека скoрoсть ветра ниже в 1.5-2 раза). Если метеoстанция нахoдится в гoрoде или в лесу, тo скoрoсть ветра занижена на 2-4 м/с пo сравнению с oткрытым местoм. Скoрoсть ветра над акватoриями крупных рек и oзёр, а также на вершинах хoлмoв на 2-5 м/с выше, чем в oбычных услoвиях.
Атмoсфернoе давление в разных тoчках местнoсти мoжет значительнo oтличаться oт давления на метеoстанции, в зависимoсти oт услoвий рельефа (при пoдъёме на 10 м давление пoнижается примернo на 1 мм рт.ст.).